Zurück zum Katalog

STARLINK-4262

AktivKommunikationVLEO
NORAD 53015·PAYLOAD·🇺🇸 United States

Gestartet Jul 7, 2022 von Cape Canaveral Space Force Station

Loading…

Nächste Überflüge (nächste 24 Stunden)

TLE

AktuellSource: CelesTrak SupGP

Epoche: Sep 15, 2026, 02:36 UTC

1 53015C 22076AF  26258.10881944  .00030885  00000+0  88357-3 0  2584
2 53015  53.1596 306.7665 0001248  79.4313 190.3270 15.35386164    15

Verfolge STARLINK-4262 in Echtzeit mit AllMySat

Download on the App Store